When you browse on this site, cookies collect data to enhance your experience and personalize the content and advertising you see.
Visit our Privacy Policy to learn more. By continuing to use the site, you agree to this use of cookies and data.
  • In Spain
  • List of Countries
  • For 7 days
  • Water Temperature
  • Weather Map
  • Weather Widgets
  • user-avatar
    Login

    Hourly Weather Iquique

    Today, 25 January, Saturday

    Time Temperature Precipitation Wind Pressure Humidity
    00:00 +26°C° 0 mm 1 mps 760 mmHg 82%
    01:00 +27°C° 0 mm 1 mps 760 mmHg 79%
    02:00 +27°C° 0 mm 1 mps 759 mmHg 78%
    03:00 +27°C° 0 mm 1 mps 759 mmHg 78%
    04:00 +27°C° 0 mm 1 mps 759 mmHg 77%
    05:00 +27°C° 0 mm 1 mps 759 mmHg 78%
    06:00 +25°C° 0 mm 0 mps 760 mmHg 79%
    07:00 +25°C° 0 mm 0 mps 760 mmHg 80%
    08:00 +28°C° 0 mm 1 mps 760 mmHg 76%
    09:00 +29°C° 0 mm 1 mps 760 mmHg 71%
    10:00 +30°C° 0 mm 2 mps 760 mmHg 67%
    11:00 +29°C° 0 mm 2 mps 760 mmHg 67%
    12:00 +29°C° 0 mm 3 mps 760 mmHg 67%
    13:00 +29°C° 0 mm 3 mps 759 mmHg 68%
    14:00 +29°C° 0 mm 3 mps 759 mmHg 68%
    15:00 +29°C° 0 mm 3 mps 759 mmHg 68%
    16:00 +29°C° 0 mm 3 mps 759 mmHg 68%
    17:00 +28°C° 0 mm 2 mps 759 mmHg 70%
    18:00 +28°C° 0 mm 2 mps 759 mmHg 73%
    19:00 +27°C° 0 mm 1 mps 760 mmHg 75%
    20:00 +27°C° 0 mm 1 mps 760 mmHg 74%
    21:00 +28°C° 0 mm 1 mps 761 mmHg 73%
    22:00 +28°C° 0 mm 1 mps 761 mmHg 71%
    23:00 +28°C° 0 mm 1 mps 761 mmHg 73%

    Tomorrow, 26 January, Sunday

    Time Temperature Precipitation Wind Pressure Humidity
    00:00 +27°C° 0 mm 1 mps 761 mmHg 74%
    01:00 +25°C° 0 mm 0 mps 760 mmHg 76%
    02:00 +27°C° 0 mm 1 mps 760 mmHg 75%
    03:00 +27°C° 0 mm 1 mps 760 mmHg 74%
    04:00 +27°C° 0 mm 1 mps 760 mmHg 72%
    05:00 +27°C° 0 mm 1 mps 760 mmHg 74%
    06:00 +27°C° 0 mm 2 mps 760 mmHg 75%
    07:00 +27°C° 0 mm 2 mps 760 mmHg 76%
    08:00 +28°C° 0 mm 2 mps 760 mmHg 74%
    09:00 +28°C° 0 mm 3 mps 760 mmHg 73%
    10:00 +29°C° 0 mm 3 mps 760 mmHg 71%
    11:00 +29°C° 0 mm 4 mps 760 mmHg 69%
    12:00 +30°C° 0 mm 4 mps 759 mmHg 67%
    13:00 +30°C° 0 mm 4 mps 759 mmHg 66%
    14:00 +30°C° 0 mm 4 mps 758 mmHg 67%
    15:00 +29°C° 0 mm 4 mps 758 mmHg 68%
    16:00 +29°C° 0 mm 4 mps 758 mmHg 69%
    17:00 +28°C° 0 mm 3 mps 758 mmHg 72%
    18:00 +28°C° 0 mm 2 mps 758 mmHg 75%
    19:00 +27°C° 0 mm 1 mps 759 mmHg 78%
    20:00 +27°C° 0 mm 1 mps 759 mmHg 77%
    21:00 +27°C° 0 mm 1 mps 760 mmHg 76%
    22:00 +27°C° 0 mm 1 mps 760 mmHg 76%
    23:00 +27°C° 0 mm 1 mps 760 mmHg 75%

    Day after tomorrow, 27 January, Monday

    Time Temperature Precipitation Wind Pressure Humidity
    00:00 +27°C° 0 mm 1 mps 759 mmHg 75%
    01:00 +27°C° 0 mm 1 mps 759 mmHg 74%
    02:00 +27°C° 0 mm 1 mps 759 mmHg 74%
    03:00 +27°C° 0 mm 1 mps 759 mmHg 74%
    04:00 +27°C° 0 mm 1 mps 758 mmHg 74%
    05:00 +27°C° 0 mm 1 mps 759 mmHg 75%
    06:00 +27°C° 0 mm 1 mps 759 mmHg 76%
    07:00 +27°C° 0 mm 1 mps 759 mmHg 77%
    08:00 +28°C° 0 mm 2 mps 759 mmHg 73%
    09:00 +29°C° 0 mm 3 mps 759 mmHg 69%
    10:00 +30°C° 0 mm 4 mps 759 mmHg 66%
    11:00 +30°C° 0 mm 4 mps 759 mmHg 65%
    12:00 +30°C° 0 mm 4 mps 758 mmHg 65%
    13:00 +30°C° 0 mm 4 mps 758 mmHg 64%
    14:00 +30°C° 0 mm 4 mps 757 mmHg 65%
    15:00 +29°C° 0 mm 4 mps 757 mmHg 66%
    16:00 +29°C° 0 mm 3 mps 757 mmHg 66%
    17:00 +28°C° 0 mm 3 mps 757 mmHg 69%
    18:00 +28°C° 0 mm 2 mps 757 mmHg 71%
    19:00 +27°C° 0 mm 2 mps 758 mmHg 74%
    20:00 +27°C° 0 mm 2 mps 758 mmHg 74%
    21:00 +27°C° 0 mm 1 mps 759 mmHg 73%
    22:00 +27°C° 0 mm 1 mps 760 mmHg 73%
    23:00 +27°C° 0 mm 1 mps 759 mmHg 75%

    28 January, Tuesday

    Time Temperature Precipitation Wind Pressure Humidity
    00:00 +27°C° 0 mm 1 mps 759 mmHg 77%
    01:00 +26°C° 0 mm 1 mps 759 mmHg 79%
    02:00 +26°C° 0 mm 1 mps 759 mmHg 80%
    03:00 +26°C° 0 mm 2 mps 758 mmHg 80%
    04:00 +26°C° 0 mm 2 mps 758 mmHg 81%
    05:00 +26°C° 0 mm 2 mps 759 mmHg 80%
    06:00 +26°C° 0 mm 1 mps 759 mmHg 79%
    07:00 +26°C° 0 mm 1 mps 759 mmHg 79%
    08:00 +27°C° 0 mm 2 mps 759 mmHg 74%
    09:00 +28°C° 0 mm 2 mps 759 mmHg 68%
    10:00 +29°C° 0 mm 2 mps 759 mmHg 63%
    11:00 +29°C° 0 mm 3 mps 759 mmHg 62%
    12:00 +29°C° 0 mm 3 mps 759 mmHg 61%
    13:00 +29°C° 0 mm 3 mps 758 mmHg 61%
    14:00 +29°C° 0 mm 3 mps 758 mmHg 62%
    15:00 +29°C° 0 mm 3 mps 758 mmHg 64%
    16:00 +28°C° 0 mm 3 mps 758 mmHg 66%
    17:00 +27°C° 0 mm 2 mps 758 mmHg 69%
    18:00 +27°C° 0 mm 2 mps 759 mmHg 72%
    19:00 +26°C° 0 mm 1 mps 759 mmHg 74%
    20:00 +26°C° 0 mm 1 mps 759 mmHg 74%
    21:00 +26°C° 0 mm 1 mps 760 mmHg 73%
    22:00 +26°C° 0 mm 1 mps 760 mmHg 73%
    23:00 +26°C° 0 mm 1 mps 760 mmHg 73%

    29 January, Wednesday

    Time Temperature Precipitation Wind Pressure Humidity
    00:00 +24°C° 0 mm 0 mps 759 mmHg 74%
    01:00 +24°C° 0 mm 0 mps 759 mmHg 75%
    02:00 +26°C° 0 mm 1 mps 759 mmHg 75%
    03:00 +26°C° 0 mm 1 mps 758 mmHg 76%
    04:00 +26°C° 0 mm 1 mps 758 mmHg 76%
    05:00 +26°C° 0 mm 1 mps 758 mmHg 74%
    06:00 +26°C° 0 mm 1 mps 759 mmHg 73%
    07:00 +26°C° 0 mm 2 mps 759 mmHg 71%
    08:00 +27°C° 0 mm 2 mps 759 mmHg 68%
    09:00 +28°C° 0 mm 3 mps 759 mmHg 65%
    10:00 +29°C° 0 mm 4 mps 759 mmHg 62%
    11:00 +29°C° 0 mm 4 mps 758 mmHg 62%
    12:00 +30°C° 0 mm 4 mps 758 mmHg 61%
    13:00 +30°C° 0 mm 5 mps 757 mmHg 61%
    14:00 +29°C° 0 mm 5 mps 757 mmHg 63%
    15:00 +29°C° 0 mm 5 mps 757 mmHg 64%
    16:00 +29°C° 0 mm 5 mps 757 mmHg 66%
    17:00 +28°C° 0 mm 4 mps 757 mmHg 70%
    18:00 +27°C° 0 mm 3 mps 758 mmHg 74%
    19:00 +26°C° 0 mm 3 mps 758 mmHg 79%
    20:00 +26°C° 0 mm 2 mps 758 mmHg 79%
    21:00 +26°C° 0 mm 2 mps 759 mmHg 79%
    22:00 +26°C° 0 mm 2 mps 759 mmHg 79%
    23:00 +26°C° 0 mm 2 mps 759 mmHg 80%

    30 January, Thursday

    Time Temperature Precipitation Wind Pressure Humidity
    00:00 +26°C° 0 mm 2 mps 758 mmHg 80%
    01:00 +25°C° 0 mm 2 mps 758 mmHg 81%
    02:00 +25°C° 0 mm 2 mps 758 mmHg 82%
    03:00 +25°C° 0 mm 2 mps 758 mmHg 82%
    04:00 +25°C° 0 mm 2 mps 758 mmHg 83%
    05:00 +25°C° 0 mm 2 mps 758 mmHg 80%
    06:00 +26°C° 0 mm 2 mps 759 mmHg 76%
    07:00 +26°C° 0 mm 2 mps 759 mmHg 73%
    08:00 +27°C° 0 mm 3 mps 759 mmHg 70%
    09:00 +28°C° 0 mm 3 mps 759 mmHg 67%
    10:00 +29°C° 0 mm 4 mps 759 mmHg 63%
    11:00 +29°C° 0 mm 4 mps 758 mmHg 62%
    12:00 +30°C° 0 mm 4 mps 758 mmHg 62%
    13:00 +30°C° 0 mm 5 mps 757 mmHg 61%
    14:00 +29°C° 0 mm 5 mps 757 mmHg 62%
    15:00 +29°C° 0 mm 4 mps 757 mmHg 63%
    16:00 +28°C° 0 mm 4 mps 757 mmHg 65%
    17:00 +27°C° 0 mm 4 mps 757 mmHg 69%
    18:00 +27°C° 0 mm 3 mps 758 mmHg 73%
    19:00 +26°C° 0 mm 2 mps 758 mmHg 77%
    20:00 +26°C° 0 mm 2 mps 759 mmHg 76%
    21:00 +26°C° 0 mm 2 mps 759 mmHg 76%
    22:00 +26°C° 0 mm 2 mps 760 mmHg 76%
    23:00 +26°C° 0 mm 2 mps 760 mmHg 76%
    Show more